Вернуться в каталог

FREGAT DEB

LostUNKNOWN
NORAD 45838·DEBRIS·🇷🇺 Russia

Запущен Jul 18, 2011 с Baikonur Cosmodrome

Loading…

Ближайшие Пролёты (ближайшие 24 часа)

TLE

УстаревшееSource: Space-Track

Эпоха: Dec 2, 2020, 05:39 UTC

1 45838U 11037BY  20337.23608981  .00152813  00000-0  29317+0 0  9993
2 45838  51.0539 339.3703 1733720 347.4247   8.9311 10.89127852 20563

Отслеживайте FREGAT DEB в реальном времени с AllMySat

Download on the App Store